Location: Unspecified
(41.5000°N, 0.0000°E)
Time: 19:22:44
(UTC+00:00)

Transit 2A - All Passes

Search period start: 17 June 2019 00:00
Search period end: 27 June 2019 00:00
Orbit: 593 x 966 km, 66.7° (Epoch: 16 June)

Date Brightness Start Highest point End Pass type
(mag) Time Alt. Az. Time Alt. Az. Time Alt. Az.
17 Jun - 01:31:46 10° SSW 01:38:07 86° WNW 01:44:30 10° NNE visible
17 Jun - 03:17:42 10° W 03:22:17 20° NW 03:26:48 10° N visible
17 Jun - 08:37:40 10° N 08:41:13 16° NE 08:44:36 10° ENE daylight
17 Jun - 10:19:49 10° NNW 10:25:30 82° ENE 10:30:32 10° SSE daylight
17 Jun - 12:05:33 10° WNW 12:07:43 12° W 12:09:47 10° SW daylight
17 Jun - 23:20:20 10° ESE 23:21:50 11° E 23:23:20 10° E visible
18 Jun - 00:57:43 10° SSW 01:04:02 71° ESE 01:10:21 10° NE visible
18 Jun - 02:42:38 10° W 02:47:51 26° NW 02:53:01 10° N visible
18 Jun - 08:04:12 10° N 08:06:41 13° NNE 08:09:05 10° ENE daylight
18 Jun - 09:45:45 10° NNW 09:51:20 57° NE 09:56:18 10° SE daylight
18 Jun - 11:30:11 10° WNW 11:33:55 19° WSW 11:37:25 10° SSW daylight
19 Jun - 00:23:55 10° S 00:30:00 51° ESE 00:36:06 10° NE visible
19 Jun - 02:07:47 10° WSW 02:13:30 33° NW 02:19:09 10° NNE visible
19 Jun - 09:11:44 10° NNW 09:17:05 40° NE 09:21:53 10° ESE daylight
19 Jun - 10:55:27 10° NW 11:00:04 28° WSW 11:04:17 10° SSW daylight
19 Jun - 23:50:19 10° S 23:56:01 36° ESE 00:01:43 10° NE visible
20 Jun - 01:33:08 10° SW 01:39:12 44° NW 01:45:12 10° NNE visible
20 Jun - 03:21:55 10° NW 03:24:06 12° NNW 03:26:16 10° N visible
20 Jun - 08:37:50 10° NNW 08:42:47 30° NE 08:47:16 10° ESE daylight
20 Jun - 10:20:59 10° NW 10:26:09 42° WSW 10:30:48 10° S daylight
20 Jun - 23:17:01 10° SSE 23:22:06 26° ESE 23:27:10 10° NE visible
21 Jun - 00:58:41 10° SW 01:04:59 60° NW 01:11:12 10° NNE visible
21 Jun - 02:46:02 10° WNW 02:49:32 15° NW 02:52:58 10° N visible
21 Jun - 08:03:59 10° N 08:08:23 22° NE 08:12:27 10° E daylight
21 Jun - 09:46:41 10° NW 09:52:10 63° WSW 09:57:03 10° SSE daylight
21 Jun - 22:44:08 10° SE 22:48:13 18° ESE 22:52:19 10° ENE visible
22 Jun - 00:24:25 10° SSW 00:30:48 80° WNW 00:37:09 10° NNE visible
22 Jun - 02:10:37 10° W 02:15:01 19° NW 02:19:20 10° N visible
22 Jun - 07:30:16 10° N 07:33:56 17° NE 07:37:22 10° E daylight
22 Jun - 09:12:30 10° NNW 09:18:06 88° ENE 09:23:04 10° SSE daylight
22 Jun - 10:58:53 10° W 11:00:14 11° W 11:01:33 10° WSW daylight
22 Jun - 22:12:08 10° ESE 22:14:25 12° E 22:16:41 10° E visible
22 Jun - 23:50:21 10° SSW 23:56:41 76° ESE 00:03:00 10° NNE visible
23 Jun - 01:35:30 10° W 01:40:35 24° NW 01:45:35 10° N visible
23 Jun - 06:56:46 10° N 06:59:24 13° NNE 07:01:57 10° ENE daylight
23 Jun - 08:38:25 10° NNW 08:43:58 61° ENE 08:48:53 10° SE daylight
23 Jun - 10:23:04 10° WNW 10:26:27 17° WSW 10:29:39 10° SW daylight
23 Jun - 23:16:29 10° S 23:22:39 55° ESE 23:28:46 10° NE visible
24 Jun - 01:00:36 10° WSW 01:06:12 32° NW 01:11:43 10° NNE visible
24 Jun - 06:24:07 10° NNE 06:24:49 10° NNE 06:25:30 10° NE daylight
24 Jun - 08:04:24 10° NNW 08:09:44 43° NE 08:14:31 10° SE daylight
24 Jun - 09:48:14 10° NW 09:52:37 26° WSW 09:56:38 10° SSW daylight
24 Jun - 22:42:50 10° S 22:48:39 39° ESE 22:54:26 10° NE visible
25 Jun - 00:25:54 10° WSW 00:31:54 41° NW 00:37:48 10° NNE visible
25 Jun - 02:15:10 10° NW 02:16:51 11° NNW 02:18:33 10° NNW visible
25 Jun - 07:30:28 10° NNW 07:35:26 31° NE 07:39:57 10° ESE daylight
25 Jun - 09:13:43 10° NW 09:18:43 38° WSW 09:23:14 10° S daylight
25 Jun - 22:09:28 10° SSE 22:14:42 28° ESE 22:19:56 10° NE visible
25 Jun - 23:51:24 10° SW 23:57:40 56° NW 00:03:49 10° NNE visible
26 Jun - 01:39:04 10° WNW 01:42:16 14° NW 01:45:25 10° N visible
26 Jun - 06:56:37 10° N 07:01:04 23° NE 07:05:09 10° E daylight
26 Jun - 08:39:23 10° NW 08:44:45 58° WSW 08:49:32 10° SSE daylight
26 Jun - 21:36:28 10° SSE 21:40:49 20° ESE 21:45:09 10° ENE visible
26 Jun - 23:17:06 10° SW 23:23:28 75° WNW 23:29:46 10° NNE visible
